When you browse on this site, cookies collect data to enhance your experience and personalize the content and advertising you see.
Visit our Privacy Policy to learn more. By continuing to use the site, you agree to this use of cookies and data.
  • In Lithuania
  • List of Countries
  • For 7 days
  • Water Temperature
  • Satellite Maps
  • Weather Map
  • Weather Widgets
  • user-avatar
    Login

    Hourly Weather Svetlyy-yar

    Today, 27 March, Wednesday

    Time Temperature Precipitation Wind Pressure Humidity
    00:00 +4°C° 0.6 mm 2 mps 747 mmHg 92%
    01:00 +4°C° 1.1 mm 2 mps 747 mmHg 93%
    02:00 +3°C° 1.1 mm 2 mps 747 mmHg 94%
    03:00 +4°C° 1.1 mm 1 mps 747 mmHg 95%
    04:00 +4°C° 1 mm 1 mps 747 mmHg 96%
    05:00 +4°C° 1 mm 1 mps 747 mmHg 96%
    06:00 +4°C° 1 mm 1 mps 746 mmHg 97%
    07:00 +4°C° 0.4 mm 1 mps 747 mmHg 97%
    08:00 +3°C° 0.4 mm 0 mps 747 mmHg 97%
    09:00 +3°C° 0.4 mm 0 mps 747 mmHg 97%
    10:00 +4°C° 0.3 mm 0 mps 747 mmHg 95%
    11:00 +5°C° 0.3 mm 0 mps 747 mmHg 92%
    12:00 +5°C° 0.3 mm 0 mps 747 mmHg 90%
    13:00 +6°C° 0.5 mm 0 mps 747 mmHg 89%
    14:00 +7°C° 0.5 mm 1 mps 747 mmHg 89%
    15:00 +7°C° 0.5 mm 1 mps 748 mmHg 89%
    16:00 +6°C° 0.2 mm 1 mps 748 mmHg 90%
    17:00 +6°C° 0.2 mm 1 mps 748 mmHg 92%
    18:00 +5°C° 0.2 mm 1 mps 748 mmHg 93%
    19:00 +3°C° 0.6 mm 2 mps 748 mmHg 94%
    20:00 +2°C° 0.6 mm 3 mps 748 mmHg 95%
    21:00 +1°C° 0.6 mm 3 mps 749 mmHg 96%
    22:00 0°C° 0.2 mm 4 mps 749 mmHg 96%
    23:00 -1°C° 0.2 mm 4 mps 749 mmHg 95%

    Tomorrow, 28 March, Thursday

    Time Temperature Precipitation Wind Pressure Humidity
    00:00 -1°C° 0.2 mm 4 mps 749 mmHg 94%
    01:00 -2°C° 0 mm 4 mps 749 mmHg 93%
    02:00 -2°C° 0 mm 5 mps 749 mmHg 91%
    03:00 -2°C° 0 mm 5 mps 748 mmHg 89%
    04:00 -2°C° 0 mm 5 mps 749 mmHg 88%
    05:00 -2°C° 0 mm 5 mps 749 mmHg 87%
    06:00 -2°C° 0 mm 5 mps 749 mmHg 87%
    07:00 -2°C° 0 mm 5 mps 749 mmHg 85%
    08:00 -2°C° 0 mm 5 mps 750 mmHg 83%
    09:00 -3°C° 0 mm 6 mps 750 mmHg 81%
    10:00 -2°C° 0 mm 6 mps 750 mmHg 78%
    11:00 -2°C° 0 mm 6 mps 751 mmHg 75%
    12:00 -1°C° 0 mm 7 mps 751 mmHg 72%
    13:00 -1°C° 0 mm 7 mps 751 mmHg 68%
    14:00 0°C° 0 mm 7 mps 752 mmHg 64%
    15:00 0°C° 0 mm 7 mps 752 mmHg 60%
    16:00 +1°C° 0 mm 6 mps 752 mmHg 64%
    17:00 0°C° 0 mm 5 mps 753 mmHg 67%
    18:00 -1°C° 0 mm 4 mps 753 mmHg 71%
    19:00 -1°C° 0 mm 4 mps 753 mmHg 75%
    20:00 -2°C° 0 mm 4 mps 754 mmHg 79%
    21:00 -3°C° 0 mm 4 mps 754 mmHg 83%
    22:00 -3°C° 0 mm 4 mps 754 mmHg 82%
    23:00 -3°C° 0 mm 4 mps 754 mmHg 81%

    Day after tomorrow, 29 March, Friday

    Time Temperature Precipitation Wind Pressure Humidity
    00:00 -4°C° 0 mm 3 mps 754 mmHg 80%
    01:00 -4°C° 0 mm 3 mps 754 mmHg 82%
    02:00 -4°C° 0 mm 3 mps 754 mmHg 83%
    03:00 -4°C° 0 mm 3 mps 754 mmHg 85%
    04:00 -3°C° 0 mm 4 mps 754 mmHg 84%
    05:00 -3°C° 0 mm 4 mps 754 mmHg 82%
    06:00 -3°C° 0 mm 4 mps 754 mmHg 81%
    07:00 -2°C° 0 mm 4 mps 754 mmHg 77%
    08:00 -2°C° 0 mm 4 mps 755 mmHg 74%
    09:00 -2°C° 0 mm 4 mps 755 mmHg 71%
    10:00 -1°C° 0.1 mm 4 mps 755 mmHg 68%
    11:00 0°C° 0.1 mm 4 mps 755 mmHg 66%
    12:00 0°C° 0.1 mm 4 mps 755 mmHg 63%
    13:00 0°C° 0.1 mm 4 mps 755 mmHg 62%
    14:00 +1°C° 0.1 mm 4 mps 754 mmHg 61%
    15:00 +1°C° 0.1 mm 4 mps 754 mmHg 60%
    16:00 +1°C° 0 mm 3 mps 754 mmHg 65%
    17:00 +2°C° 0 mm 2 mps 754 mmHg 69%
    18:00 +1°C° 0 mm 2 mps 754 mmHg 74%
    19:00 +1°C° 0 mm 1 mps 755 mmHg 77%
    20:00 0°C° 0 mm 1 mps 755 mmHg 80%
    21:00 0°C° 0 mm 1 mps 755 mmHg 84%
    22:00 -1°C° 0 mm 1 mps 755 mmHg 84%
    23:00 -1°C° 0 mm 1 mps 755 mmHg 84%

    30 March, Saturday

    Time Temperature Precipitation Wind Pressure Humidity
    00:00 -3°C° 0 mm 2 mps 755 mmHg 85%
    01:00 -3°C° 0 mm 2 mps 755 mmHg 83%
    02:00 -3°C° 0 mm 2 mps 755 mmHg 82%
    03:00 -3°C° 0 mm 2 mps 754 mmHg 80%
    04:00 -3°C° 0 mm 2 mps 754 mmHg 78%
    05:00 -3°C° 0 mm 2 mps 754 mmHg 76%
    06:00 -4°C° 0 mm 3 mps 754 mmHg 73%
    07:00 -1°C° 0 mm 3 mps 754 mmHg 67%
    08:00 0°C° 0 mm 3 mps 754 mmHg 61%
    09:00 +1°C° 0 mm 4 mps 754 mmHg 56%
    10:00 +3°C° 0 mm 4 mps 753 mmHg 56%
    11:00 +4°C° 0 mm 4 mps 753 mmHg 56%
    12:00 +5°C° 0 mm 5 mps 753 mmHg 56%
    13:00 +5°C° 0 mm 5 mps 752 mmHg 59%
    14:00 +6°C° 0 mm 5 mps 752 mmHg 62%
    15:00 +6°C° 0 mm 5 mps 751 mmHg 65%
    16:00 +5°C° 0 mm 4 mps 751 mmHg 71%
    17:00 +5°C° 0 mm 4 mps 751 mmHg 77%
    18:00 +4°C° 0 mm 3 mps 751 mmHg 83%
    19:00 +4°C° 0 mm 3 mps 751 mmHg 85%
    20:00 +4°C° 0 mm 4 mps 751 mmHg 86%
    21:00 +4°C° 0 mm 4 mps 751 mmHg 88%
    22:00 +4°C° 0 mm 3 mps 751 mmHg 90%
    23:00 +3°C° 0 mm 3 mps 752 mmHg 91%

    31 March, Sunday

    Time Temperature Precipitation Wind Pressure Humidity
    00:00 +4°C° 0 mm 2 mps 752 mmHg 93%
    01:00 +4°C° 0 mm 2 mps 752 mmHg 92%
    02:00 +3°C° 0 mm 2 mps 752 mmHg 92%
    03:00 +2°C° 0 mm 2 mps 752 mmHg 92%
    04:00 +2°C° 0 mm 2 mps 752 mmHg 92%
    05:00 +2°C° 0 mm 2 mps 752 mmHg 92%
    06:00 +2°C° 0 mm 2 mps 753 mmHg 93%
    07:00 +4°C° 0 mm 2 mps 753 mmHg 88%
    08:00 +5°C° 0 mm 2 mps 753 mmHg 84%
    09:00 +6°C° 0 mm 2 mps 754 mmHg 79%
    10:00 +9°C° 0 mm 1 mps 754 mmHg 73%
    11:00 +10°C° 0 mm 1 mps 754 mmHg 68%
    12:00 +11°C° 0 mm 1 mps 754 mmHg 62%
    13:00 +12°C° 0 mm 1 mps 754 mmHg 60%
    14:00 +12°C° 0 mm 1 mps 754 mmHg 57%
    15:00 +13°C° 0 mm 1 mps 753 mmHg 55%
    16:00 +13°C° 0 mm 1 mps 753 mmHg 58%
    17:00 +12°C° 0 mm 1 mps 753 mmHg 61%
    18:00 +12°C° 0 mm 2 mps 753 mmHg 64%
    19:00 +10°C° 0 mm 2 mps 753 mmHg 69%
    20:00 +8°C° 0 mm 2 mps 754 mmHg 73%
    21:00 +7°C° 0 mm 2 mps 754 mmHg 78%
    22:00 +7°C° 0 mm 2 mps 754 mmHg 80%
    23:00 +6°C° 0 mm 2 mps 754 mmHg 82%

    1 April, Monday

    Time Temperature Precipitation Wind Pressure Humidity
    00:00 +6°C° 0 mm 2 mps 754 mmHg 84%
    01:00 +4°C° 0 mm 3 mps 754 mmHg 85%
    02:00 +4°C° 0 mm 3 mps 753 mmHg 86%
    03:00 +3°C° 0 mm 3 mps 753 mmHg 88%
    04:00 +3°C° 0 mm 3 mps 753 mmHg 88%
    05:00 +3°C° 0 mm 3 mps 753 mmHg 89%
    06:00 +2°C° 0 mm 3 mps 753 mmHg 89%
    07:00 +4°C° 0 mm 3 mps 753 mmHg 82%
    08:00 +7°C° 0 mm 3 mps 753 mmHg 75%
    09:00 +8°C° 0 mm 4 mps 753 mmHg 68%
    10:00 +10°C° 0 mm 4 mps 753 mmHg 61%
    11:00 +12°C° 0 mm 4 mps 753 mmHg 54%
    12:00 +13°C° 0 mm 5 mps 752 mmHg 46%
    13:00 +14°C° 0 mm 5 mps 752 mmHg 45%
    14:00 +14°C° 0 mm 5 mps 751 mmHg 43%
    15:00 +14°C° 0 mm 5 mps 751 mmHg 41%
    16:00 +13°C° 0 mm 4 mps 751 mmHg 44%
    17:00 +13°C° 0 mm 4 mps 750 mmHg 47%
    18:00 +12°C° 0 mm 3 mps 750 mmHg 50%
    19:00 +11°C° 0 mm 3 mps 750 mmHg 53%
    20:00 +9°C° 0 mm 3 mps 750 mmHg 57%
    21:00 +8°C° 0 mm 3 mps 750 mmHg 60%
    22:00 +8°C° 0 mm 3 mps 750 mmHg 62%
    23:00 +8°C° 0 mm 3 mps 750 mmHg 63%
    Show more